• Em Portugal
  • Lista de países
  • Para 7 dias
  • Temperatura da água
  • Mapas de satélite
  • Mapa do tempo
  • Widgets de tempo
  • user-avatar
    Iniciar Sessão

    Previsão horária em Orhei

    Hoje, 22 Setembro, Sábado

    Tempo Temperatura Precipitação Vento Pressão Humidade
    00:00 +20°C° 0 mm 2 m/s 755 mmHg 46%
    01:00 +19°C° 0 mm 2 m/s 755 mmHg 48%
    02:00 +19°C° 0 mm 2 m/s 755 mmHg 51%
    03:00 +18°C° 0 mm 2 m/s 755 mmHg 53%
    04:00 +18°C° 0 mm 2 m/s 755 mmHg 54%
    05:00 +18°C° 0 mm 2 m/s 755 mmHg 56%
    06:00 +19°C° 0 mm 2 m/s 755 mmHg 54%
    07:00 +20°C° 0 mm 3 m/s 755 mmHg 52%
    08:00 +21°C° 0 mm 3 m/s 755 mmHg 48%
    09:00 +24°C° 0 mm 3 m/s 754 mmHg 43%
    10:00 +26°C° 0 mm 4 m/s 754 mmHg 38%
    11:00 +28°C° 0 mm 5 m/s 754 mmHg 33%
    12:00 +29°C° 0 mm 4 m/s 754 mmHg 31%
    13:00 +30°C° 0 mm 4 m/s 754 mmHg 29%
    14:00 +30°C° 0 mm 4 m/s 753 mmHg 27%
    15:00 +30°C° 0 mm 3 m/s 753 mmHg 29%
    16:00 +29°C° 0 mm 3 m/s 753 mmHg 31%
    17:00 +29°C° 0 mm 2 m/s 752 mmHg 33%
    18:00 +27°C° 0 mm 2 m/s 753 mmHg 36%
    19:00 +26°C° 0 mm 3 m/s 753 mmHg 38%
    20:00 +24°C° 0 mm 3 m/s 753 mmHg 41%
    21:00 +21°C° 0 mm 5 m/s 753 mmHg 49%
    22:00 +19°C° 0 mm 6 m/s 754 mmHg 56%
    23:00 +17°C° 0 mm 8 m/s 755 mmHg 64%

    Amanhã, 23 Setembro, Domingo

    Tempo Temperatura Precipitação Vento Pressão Humidade
    00:00 +16°C° 0 mm 7 m/s 755 mmHg 66%
    01:00 +15°C° 0 mm 6 m/s 755 mmHg 68%
    02:00 +14°C° 0 mm 6 m/s 756 mmHg 70%
    03:00 +14°C° 0.1 mm 5 m/s 756 mmHg 70%
    04:00 +13°C° 0.1 mm 5 m/s 756 mmHg 70%
    05:00 +13°C° 0.1 mm 5 m/s 757 mmHg 71%
    06:00 +13°C° 0 mm 4 m/s 757 mmHg 68%
    07:00 +13°C° 0 mm 4 m/s 757 mmHg 65%
    08:00 +13°C° 0 mm 3 m/s 757 mmHg 62%
    09:00 +16°C° 0 mm 3 m/s 757 mmHg 55%
    10:00 +18°C° 0 mm 3 m/s 757 mmHg 47%
    11:00 +19°C° 0 mm 3 m/s 757 mmHg 40%
    12:00 +20°C° 0 mm 3 m/s 757 mmHg 37%
    13:00 +21°C° 0 mm 3 m/s 757 mmHg 34%
    14:00 +22°C° 0 mm 3 m/s 757 mmHg 31%
    15:00 +22°C° 0 mm 3 m/s 756 mmHg 32%
    16:00 +21°C° 0 mm 2 m/s 756 mmHg 33%
    17:00 +22°C° 0 mm 1 m/s 756 mmHg 34%
    18:00 +20°C° 0 mm 2 m/s 756 mmHg 35%
    19:00 +19°C° 0 mm 2 m/s 756 mmHg 37%
    20:00 +17°C° 0 mm 2 m/s 756 mmHg 39%
    21:00 +17°C° 0 mm 2 m/s 755 mmHg 39%
    22:00 +17°C° 0 mm 3 m/s 755 mmHg 40%
    23:00 +15°C° 0 mm 4 m/s 755 mmHg 40%

    Depois de amanhã, 24 Setembro, Segunda-feira

    Tempo Temperatura Precipitação Vento Pressão Humidade
    00:00 +16°C° 0 mm 5 m/s 754 mmHg 43%
    01:00 +16°C° 0 mm 6 m/s 753 mmHg 47%
    02:00 +16°C° 0 mm 7 m/s 753 mmHg 50%
    03:00 +16°C° 0 mm 7 m/s 752 mmHg 56%
    04:00 +16°C° 0 mm 7 m/s 751 mmHg 62%
    05:00 +17°C° 0 mm 7 m/s 750 mmHg 67%
    06:00 +17°C° 0.1 mm 8 m/s 750 mmHg 69%
    07:00 +18°C° 0.1 mm 8 m/s 749 mmHg 71%
    08:00 +18°C° 0.1 mm 8 m/s 749 mmHg 73%
    09:00 +20°C° 0.6 mm 8 m/s 748 mmHg 72%
    10:00 +21°C° 0.6 mm 7 m/s 748 mmHg 71%
    11:00 +21°C° 0.6 mm 7 m/s 748 mmHg 70%
    12:00 +21°C° 0.2 mm 8 m/s 748 mmHg 69%
    13:00 +19°C° 0.2 mm 9 m/s 748 mmHg 67%
    14:00 +19°C° 0.2 mm 10 m/s 749 mmHg 66%
    15:00 +17°C° 0.1 mm 10 m/s 750 mmHg 65%
    16:00 +16°C° 0.1 mm 10 m/s 751 mmHg 63%
    17:00 +13°C° 0.1 mm 9 m/s 752 mmHg 61%
    18:00 +13°C° 0 mm 9 m/s 753 mmHg 60%
    19:00 +13°C° 0 mm 8 m/s 753 mmHg 60%
    20:00 +12°C° 0 mm 7 m/s 754 mmHg 59%
    21:00 +11°C° 0 mm 7 m/s 755 mmHg 61%
    22:00 +11°C° 0 mm 6 m/s 755 mmHg 63%
    23:00 +10°C° 0 mm 6 m/s 756 mmHg 65%

    25 Setembro, Terça-feira

    Tempo Temperatura Precipitação Vento Pressão Humidade
    00:00 +9°C° 0 mm 5 m/s 756 mmHg 63%
    01:00 +9°C° 0 mm 5 m/s 756 mmHg 62%
    02:00 +8°C° 0 mm 5 m/s 756 mmHg 61%
    03:00 +8°C° 0 mm 5 m/s 757 mmHg 61%
    04:00 +8°C° 0 mm 5 m/s 757 mmHg 61%
    05:00 +7°C° 0 mm 6 m/s 757 mmHg 61%
    06:00 +8°C° 0 mm 7 m/s 757 mmHg 60%
    07:00 +9°C° 0 mm 8 m/s 758 mmHg 59%
    08:00 +8°C° 0 mm 9 m/s 758 mmHg 58%
    09:00 +10°C° 0 mm 9 m/s 758 mmHg 56%
    10:00 +10°C° 0 mm 9 m/s 759 mmHg 55%
    11:00 +9°C° 0 mm 10 m/s 759 mmHg 54%
    12:00 +9°C° 0.1 mm 10 m/s 759 mmHg 55%
    13:00 +10°C° 0.1 mm 9 m/s 760 mmHg 56%
    14:00 +10°C° 0.1 mm 9 m/s 760 mmHg 57%
    15:00 +10°C° 0 mm 9 m/s 760 mmHg 54%
    16:00 +10°C° 0 mm 8 m/s 760 mmHg 51%
    17:00 +11°C° 0 mm 7 m/s 761 mmHg 47%
    18:00 +10°C° 0 mm 6 m/s 761 mmHg 51%
    19:00 +9°C° 0 mm 5 m/s 762 mmHg 54%
    20:00 +8°C° 0 mm 4 m/s 763 mmHg 58%
    21:00 +7°C° 0 mm 4 m/s 763 mmHg 60%
    22:00 +7°C° 0 mm 5 m/s 764 mmHg 62%
    23:00 +7°C° 0 mm 5 m/s 764 mmHg 64%

    26 Setembro, Quarta-feira

    Tempo Temperatura Precipitação Vento Pressão Humidade
    00:00 +6°C° 0 mm 5 m/s 764 mmHg 67%
    01:00 +6°C° 0 mm 5 m/s 765 mmHg 69%
    02:00 +6°C° 0 mm 5 m/s 765 mmHg 72%
    03:00 +5°C° 0 mm 5 m/s 766 mmHg 73%
    04:00 +5°C° 0 mm 5 m/s 766 mmHg 74%
    05:00 +5°C° 0 mm 5 m/s 767 mmHg 75%
    06:00 +6°C° 0 mm 5 m/s 767 mmHg 71%
    07:00 +5°C° 0 mm 6 m/s 767 mmHg 68%
    08:00 +7°C° 0 mm 6 m/s 768 mmHg 64%
    09:00 +9°C° 0 mm 6 m/s 768 mmHg 56%
    10:00 +10°C° 0 mm 6 m/s 768 mmHg 49%
    11:00 +13°C° 0 mm 6 m/s 768 mmHg 41%
    12:00 +13°C° 0 mm 6 m/s 768 mmHg 39%
    13:00 +14°C° 0 mm 6 m/s 767 mmHg 37%
    14:00 +15°C° 0 mm 6 m/s 767 mmHg 35%
    15:00 +14°C° 0 mm 5 m/s 767 mmHg 36%
    16:00 +14°C° 0 mm 4 m/s 767 mmHg 37%
    17:00 +14°C° 0 mm 4 m/s 767 mmHg 38%
    18:00 +12°C° 0 mm 3 m/s 767 mmHg 41%
    19:00 +12°C° 0 mm 2 m/s 767 mmHg 45%
    20:00 +11°C° 0 mm 1 m/s 767 mmHg 49%
    21:00 +10°C° 0 mm 1 m/s 767 mmHg 51%
    22:00 +10°C° 0 mm 1 m/s 767 mmHg 53%
    23:00 +10°C° 0 mm 1 m/s 767 mmHg 54%

    27 Setembro, Quinta-feira

    Tempo Temperatura Precipitação Vento Pressão Humidade
    00:00 +9°C° 0 mm 1 m/s 766 mmHg 55%
    01:00 +9°C° 0 mm 1 m/s 766 mmHg 56%
    02:00 +9°C° 0 mm 1 m/s 766 mmHg 56%
    03:00 +9°C° 0 mm 1 m/s 765 mmHg 57%
    04:00 +7°C° 0 mm 2 m/s 765 mmHg 57%
    05:00 +7°C° 0 mm 2 m/s 765 mmHg 57%
    06:00 +8°C° 0 mm 2 m/s 764 mmHg 53%
    07:00 +9°C° 0 mm 2 m/s 764 mmHg 49%
    08:00 +11°C° 0 mm 3 m/s 764 mmHg 44%
    09:00 +13°C° 0 mm 3 m/s 763 mmHg 40%
    10:00 +14°C° 0 mm 4 m/s 763 mmHg 35%
    11:00 +17°C° 0 mm 4 m/s 763 mmHg 31%
    12:00 +19°C° 0 mm 4 m/s 762 mmHg 27%
    13:00 +20°C° 0 mm 4 m/s 761 mmHg 24%
    14:00 +21°C° 0 mm 4 m/s 760 mmHg 21%
    15:00 +21°C° 0 mm 3 m/s 760 mmHg 23%
    16:00 +20°C° 0 mm 3 m/s 759 mmHg 25%
    17:00 +20°C° 0 mm 2 m/s 759 mmHg 26%
    18:00 +18°C° 0 mm 2 m/s 759 mmHg 27%
    19:00 +17°C° 0 mm 2 m/s 759 mmHg 28%
    20:00 +15°C° 0 mm 2 m/s 759 mmHg 29%
    21:00 +15°C° 0 mm 2 m/s 758 mmHg 30%
    22:00 +14°C° 0 mm 2 m/s 758 mmHg 31%
    23:00 +14°C° 0 mm 2 m/s 758 mmHg 32%
    Mostrar mais